Retour au catalogue

STARLINK-33891

ActifCommunicationsVLEO
NORAD 63827·PAYLOAD·🇺🇸 United States

Lancé May 4, 2025 depuis Cape Canaveral Space Force Station

Loading…

Prochains Passages (prochaines 24 heures)

TLE

FraisSource: CelesTrak SupGP

Époque: Sep 14, 2026, 22:49 UTC

1 63827C 25092Z   26257.95118056 -.00044090  00000+0 -15967-2 0  2576
2 63827  43.0000 184.0814 0001206 265.1317 151.6421 15.27604206    19

Suivez STARLINK-33891 en temps réel avec AllMySat

Download on the App Store